RH
45 41 37 34 32 29 28 27 27 27 28 30 31 31 31 31 31 31 31 31 33 37 38 36 34 34 36 38 38 37 36 36 36 39 43 45 46 48 49 50 51 53 55 56 57 56 55 57 60 64 68 68 64 60 55 52 52 53 52 54 59 62 69 76 71 64 68 70 64 64 66 69 71 69 61 57 56 56 56 55 51 45 45 49 52
50 45 38 35 34 33 31 29 29 28 29 31 31 32 31 29 29 29 31 34 35 38 39 38 36 35 35 36 36 37 36 35 35 38 42 44 45 47 47 47 48 50 53 55 55 53 52 54 58 63 66 66 63 60 59 57 55 53 50 49 55 59 63 73 79 72 69 69 65 64 66 66 66 62 57 52 49 51 56 58 54 46 43 48 53
50 48 40 33 33 33 30 27 27 28 31 32 32 31 28 27 28 27 29 34 37 38 37 34 34 35 35 35 36 37 36 36 37 38 39 43 46 46 46 46 46 47 50 52 50 48 48 49 54 60 62 62 60 57 59 61 59 56 51 47 52 58 57 66 81 83 75 68 62 63 67 66 64 61 57 52 44 44 51 56 52 45 42 45 53
47 47 42 36 35 33 29 27 28 30 32 32 31 29 26 27 29 28 28 32 36 39 39 35 35 38 39 36 37 39 39 39 39 38 40 46 48 46 47 48 47 45 46 47 46 45 46 48 51 53 54 56 58 59 61 63 63 60 55 50 50 55 55 58 69 76 74 66 60 61 65 67 66 64 60 54 45 42 48 56 55 47 43 44 53
46 43 40 37 35 32 30 29 31 32 33 31 29 28 27 27 29 29 31 34 36 39 39 38 38 42 43 40 39 43 45 43 41 39 42 49 48 45 47 50 48 45 44 46 47 49 50 51 50 47 48 53 60 67 69 67 65 62 59 55 51 50 52 55 61 67 67 64 61 61 66 69 68 64 60 54 49 44 43 51 59 53 45 47 55
45 40 37 34 32 30 30 31 33 33 32 31 30 30 29 30 31 32 35 36 37 40 41 40 41 43 44 42 40 41 46 46 45 44 47 47 44 43 47 50 49 46 44 44 47 52 52 50 48 48 50 56 64 72 77 76 72 67 61 56 52 51 51 54 64 71 66 59 57 61 68 68 65 65 61 55 54 50 45 54 65 58 46 48 57
44 37 34 30 27 28 29 31 33 33 32 31 32 31 32 34 34 35 36 37 39 41 42 43 45 45 45 44 42 42 45 47 49 52 52 48 45 47 48 48 49 47 42 41 46 52 53 51 51 52 55 62 69 75 80 81 80 75 66 58 53 54 55 57 68 75 67 55 50 55 62 62 65 68 62 56 60 55 47 55 66 58 46 48 57
40 35 32 26 24 26 29 32 33 33 32 33 33 34 35 36 37 37 36 38 41 43 42 43 46 47 45 44 45 45 46 49 53 56 54 51 51 52 49 45 46 45 40 40 45 51 53 52 54 57 59 65 73 80 84 86 85 82 76 66 58 56 57 61 72 79 71 57 50 52 57 63 71 70 58 61 72 62 48 52 62 61 53 52 57
36 32 28 22 21 24 27 31 32 33 34 35 36 38 38 38 38 37 36 39 42 43 44 44 47 47 45 45 46 47 47 50 54 56 54 52 51 50 44 40 40 41 39 39 45 52 54 53 54 58 63 67 74 83 89 89 89 88 84 76 67 60 58 62 75 82 74 58 49 52 59 64 72 70 59 64 76 65 48 50 60 64 59 54 57
30 24 23 21 23 26 28 30 32 33 36 38 39 39 39 40 39 38 38 41 44 45 45 45 46 46 45 46 48 49 50 52 55 56 54 50 48 45 40 37 38 39 38 39 46 52 54 54 54 58 64 69 74 83 89 91 91 90 88 83 76 69 63 61 68 77 74 59 49 52 61 63 70 74 63 61 73 68 53 55 65 66 60 56 59
24 19 20 22 24 28 30 32 34 36 38 40 40 40 39 40 40 39 41 43 45 45 45 44 44 45 46 49 50 50 51 53 54 53 51 48 46 42 37 35 36 38 39 40 46 52 54 54 56 59 65 72 76 81 88 91 92 92 90 86 80 74 69 64 63 69 73 67 57 57 64 66 71 77 67 60 72 72 57 58 69 66 56 53 57
21 20 22 23 25 28 31 34 36 37 40 41 41 41 40 40 42 42 43 45 45 45 45 44 45 45 47 50 51 50 52 54 54 52 50 48 45 41 37 36 35 38 41 41 43 47 50 52 56 60 67 74 77 80 87 92 94 92 90 86 81 75 71 68 65 67 70 69 63 60 64 69 74 78 71 61 68 73 61 59 67 64 55 53 55
24 24 26 27 28 29 31 34 37 39 41 42 43 43 41 42 43 44 45 47 47 46 46 45 45 46 46 49 50 50 53 55 55 54 53 48 43 41 39 36 36 39 46 50 49 46 45 47 53 59 68 76 79 81 87 93 95 93 91 88 82 76 72 68 67 70 71 68 63 62 68 74 75 77 73 64 65 68 63 60 64 61 56 56 56
28 28 30 30 30 30 32 35 39 42 42 44 45 45 44 43 44 45 47 48 48 46 45 45 44 44 45 46 48 50 54 55 55 56 54 49 46 44 42 39 39 41 48 57 58 50 43 45 50 57 67 76 80 82 88 93 96 94 93 91 86 80 74 69 68 70 70 68 64 64 71 77 76 74 70 63 59 59 60 63 65 61 56 58 58
27 30 34 35 33 32 34 38 41 44 46 47 47 48 47 45 44 46 47 47 46 45 45 46 47 46 45 46 49 53 56 57 58 58 56 52 50 48 45 44 44 43 45 56 59 50 44 45 48 55 66 74 79 84 88 91 94 95 94 91 88 84 78 72 69 68 67 66 64 64 68 73 74 71 65 58 56 61 65 68 67 63 60 62 61
26 31 37 39 38 36 39 42 44 47 50 50 50 51 50 47 46 47 47 46 46 46 46 48 49 48 47 49 55 61 62 60 60 61 57 53 52 52 50 49 50 50 50 55 56 49 44 45 47 55 64 71 76 84 89 90 92 95 95 92 89 86 82 76 72 67 65 65 62 61 64 67 69 70 65 58 60 68 72 71 67 60 61 67 69
28 33 37 40 42 43 44 46 48 50 52 52 52 52 50 48 46 46 46 46 45 46 49 51 51 50 50 53 59 65 65 63 63 62 58 54 54 55 54 53 56 58 57 55 54 51 48 45 47 54 62 67 72 80 88 92 93 94 94 93 91 89 84 79 74 68 64 63 62 59 60 62 64 66 67 65 67 72 73 70 64 59 60 69 75
31 35 37 41 45 49 50 52 52 53 52 53 52 51 49 48 47 46 46 45 45 47 51 52 52 53 55 58 62 64 64 69 72 68 59 55 54 56 56 54 55 60 62 58 54 53 50 47 49 54 59 64 69 77 86 92 94 94 93 93 94 92 86 81 78 71 64 62 62 60 59 60 60 60 63 67 68 70 69 64 62 65 67 70 75
33 37 40 43 48 53 55 56 57 55 53 52 51 50 50 49 47 47 47 47 46 49 52 52 53 55 56 60 64 63 61 69 78 73 62 54 53 56 57 55 55 59 62 59 55 52 50 49 52 55 57 61 67 73 83 92 95 94 93 93 95 93 88 84 80 75 70 66 64 62 60 60 60 58 57 60 63 65 67 65 66 71 71 70 74
35 38 42 45 49 55 59 61 62 61 57 53 50 50 51 50 48 48 49 48 48 48 50 51 53 55 55 58 63 64 65 70 74 71 64 56 53 55 56 56 57 58 59 58 56 54 52 52 54 55 56 61 66 72 80 90 94 94 93 94 94 92 90 88 85 81 77 73 69 67 64 62 62 61 59 59 61 62 65 67 70 74 72 71 75
37 39 41 45 48 52 58 62 65 65 61 56 52 51 52 52 51 50 50 51 49 48 49 51 52 55 56 56 61 67 70 69 68 67 65 59 54 55 56 56 58 60 59 58 58 58 56 54 54 56 57 61 66 70 77 87 92 92 93 95 95 92 91 92 91 88 85 81 76 71 69 68 68 66 63 62 60 61 63 65 68 71 69 68 73
39 40 42 44 45 48 55 62 66 67 63 57 53 53 55 54 52 51 53 56 53 50 51 51 52 54 55 56 62 67 68 68 67 67 66 62 57 56 55 56 59 61 60 59 58 58 57 54 55 57 59 60 64 68 75 83 89 91 93 95 95 94 93 92 93 92 90 89 84 79 75 73 73 72 70 66 63 61 61 62 62 63 61 61 65
40 42 43 43 41 43 50 59 63 64 60 56 54 57 58 56 52 50 55 60 58 53 52 52 52 55 56 58 64 66 68 73 73 67 65 64 60 57 55 56 58 59 60 59 57 57 56 55 56 60 62 61 63 67 73 79 85 90 92 93 94 94 94 93 92 92 91 90 88 86 82 78 76 77 78 76 71 67 64 64 62 59 56 56 59
41 43 44 45 44 44 50 55 57 59 61 58 57 57 55 53 49 47 56 65 61 53 52 52 51 56 59 59 61 65 69 75 74 66 64 63 59 56 57 57 57 58 58 57 56 55 55 55 58 63 66 63 62 68 72 77 84 90 91 92 94 93 93 93 93 92 91 89 89 88 87 84 82 82 83 82 80 76 72 68 67 64 60 58 58
44 46 47 51 53 53 53 53 55 61 64 63 61 58 54 52 49 46 58 70 62 51 53 53 52 58 62 59 59 64 66 68 68 66 64 61 57 57 58 57 56 56 55 55 55 54 53 54 58 64 69 68 65 70 77 81 87 91 90 90 91 91 91 93 93 92 92 91 91 91 90 88 86 84 83 83 82 81 78 75 73 71 68 65 64
45 48 48 51 53 54 55 56 59 65 65 63 63 59 55 54 49 46 59 71 63 53 56 57 54 61 66 63 62 64 62 60 63 66 64 60 58 58 56 55 54 54 53 55 57 56 53 53 57 62 69 73 72 76 83 88 89 88 87 87 86 86 89 94 94 93 93 93 94 94 93 90 87 85 84 84 83 81 80 79 77 75 73 71 69
44 48 51 52 52 53 56 58 60 62 61 62 63 59 53 51 49 50 63 73 65 56 56 56 55 61 67 67 65 65 63 62 62 63 62 60 59 58 56 53 51 52 53 55 58 57 54 54 58 62 67 74 79 81 85 89 89 85 84 85 84 82 87 93 94 95 96 95 94 95 93 88 86 87 88 87 84 81 80 80 79 77 77 75 73
46 50 53 53 52 54 56 58 60 60 58 58 61 58 51 49 49 52 62 69 63 57 56 56 57 62 68 72 71 69 69 67 63 61 61 60 58 57 56 53 51 51 53 54 57 59 56 57 62 63 61 67 76 78 77 80 83 82 83 85 84 81 83 88 91 94 94 93 93 94 91 86 85 89 93 92 89 85 85 85 84 83 82 80 77
47 49 51 52 52 53 53 55 59 60 57 58 62 60 53 49 47 49 54 57 56 55 55 55 57 62 70 75 75 73 72 70 65 63 62 60 59 58 56 54 53 52 52 53 57 60 59 60 63 61 56 59 67 71 72 75 78 79 81 84 84 83 82 84 88 91 91 89 89 92 93 91 89 92 95 95 93 90 90 91 91 90 90 87 85
46 47 49 50 52 53 53 53 56 58 58 60 60 57 53 50 47 45 47 49 50 50 49 50 54 62 71 77 76 74 73 72 68 66 64 63 62 59 57 56 56 53 52 52 55 59 61 62 61 58 55 56 58 62 69 77 79 79 79 81 83 83 81 81 85 88 89 88 88 90 93 95 94 95 97 96 94 94 94 95 96 97 96 94 91
44 46 46 48 52 55 56 57 59 58 56 54 51 52 53 52 47 44 44 44 44 43 43 45 50 59 70 79 80 77 75 73 69 67 66 65 63 60 59 59 56 52 50 50 52 57 61 60 57 55 55 56 57 58 66 76 82 82 81 82 82 82 80 80 83 84 86 89 90 89 91 94 94 95 97 97 95 95 95 95 95 96 96 96 92
42 43 44 47 49 50 52 54 54 53 51 50 50 54 57 56 53 53 50 44 40 39 41 45 49 56 67 79 83 80 77 74 71 69 68 66 63 60 60 59 54 48 46 47 50 53 54 55 55 54 54 56 58 58 62 72 81 84 84 83 84 82 80 81 83 82 83 89 92 90 89 92 93 93 93 93 93 92 90 90 91 92 91 90 88
42 41 43 45 47 46 45 46 46 47 48 48 51 55 59 59 61 62 56 48 45 45 47 50 53 57 65 77 84 82 77 74 72 70 68 65 62 61 60 58 54 50 49 48 48 47 47 48 51 53 53 54 57 59 60 66 73 78 80 81 83 83 83 83 84 82 81 85 91 92 90 90 91 92 92 92 92 92 89 86 87 89 87 84 80
44 43 41 42 44 44 43 42 44 48 50 50 51 55 57 58 61 64 63 60 58 56 55 61 66 69 73 80 85 84 78 75 73 71 67 64 63 62 61 58 56 55 53 50 47 45 43 42 44 46 48 50 54 58 60 61 64 68 71 73 76 79 81 81 83 84 83 82 84 87 88 87 87 91 93 91 90 93 93 90 86 87 88 86 82
45 46 43 41 42 43 43 45 48 51 51 49 48 49 53 57 62 66 68 68 66 64 67 74 81 85 85 86 86 84 80 77 76 74 70 67 66 66 63 59 56 56 54 51 47 45 43 42 41 40 41 44 48 53 57 59 60 60 62 65 68 71 73 76 79 82 84 83 80 81 83 83 84 88 92 92 90 91 93 93 91 91 93 92 89
47 47 44 43 45 47 48 49 50 50 50 49 47 48 52 56 60 63 66 68 68 69 73 79 84 88 89 87 85 81 80 79 79 76 71 69 70 70 66 60 56 55 55 53 49 46 44 43 41 39 38 38 41 45 51 56 59 60 60 60 62 63 66 69 72 75 80 82 81 81 82 82 82 83 86 90 92 92 90 90 91 94 96 96 93
50 49 47 46 50 52 53 53 54 54 54 54 53 53 53 54 57 60 63 68 70 70 73 78 82 85 90 91 88 84 81 81 80 76 72 71 72 70 66 62 59 56 54 53 50 48 45 43 42 40 38 38 38 39 41 46 53 58 60 61 61 61 61 62 65 67 70 74 78 80 82 84 84 83 82 85 91 94 93 91 89 90 93 95 95
53 53 52 52 53 55 55 57 61 62 60 58 57 58 58 59 61 63 66 70 71 72 77 85 88 89 92 94 91 88 86 84 82 78 74 71 69 66 62 61 60 58 55 52 49 46 44 41 38 37 36 36 37 36 36 38 42 47 52 56 58 59 59 59 60 60 62 64 68 73 77 81 84 84 83 84 87 90 92 93 92 90 90 91 92
56 56 58 58 58 56 56 59 64 65 63 61 61 62 64 65 67 71 73 73 71 74 81 89 90 89 90 87 83 83 84 81 77 73 69 67 65 63 60 60 59 57 55 51 48 44 41 37 35 34 34 34 34 35 35 36 37 38 43 47 50 54 56 57 57 57 57 58 59 62 67 72 77 80 82 84 85 86 88 91 91 91 91 90 91
59 60 62 63 62 60 59 60 62 62 64 68 68 68 69 71 73 77 79 75 72 76 84 88 88 86 84 80 76 75 76 74 71 68 65 63 62 61 59 57 56 54 51 49 47 43 38 34 33 33 32 31 32 32 33 34 34 35 36 37 40 43 46 49 52 54 55 55 54 56 58 61 65 69 73 77 80 81 84 88 90 89 88 88 88
64 64 64 64 64 64 63 63 63 65 70 75 77 76 77 80 81 81 81 79 77 79 84 86 86 85 80 75 73 74 74 71 69 65 62 59 58 58 58 56 53 50 47 46 45 42 39 36 34 32 30 30 30 29 29 30 31 32 32 32 32 33 35 38 41 45 49 51 52 53 54 55 57 60 64 68 71 74 76 80 83 85 85 85 85
68 67 67 67 66 66 67 67 69 72 74 78 81 82 83 87 89 88 85 83 81 80 81 84 87 86 80 75 73 72 71 70 66 62 58 56 54 54 54 52 49 45 43 42 41 40 38 36 33 31 30 29 29 28 29 28 27 28 28 29 29 29 29 29 30 33 37 43 47 50 51 53 54 56 58 61 64 66 68 71 73 76 79 82 83
70 69 71 70 70 71 73 74 77 79 80 82 86 87 89 92 93 90 86 85 84 84 84 86 87 87 83 78 74 71 69 68 65 61 57 54 52 49 48 47 45 42 40 38 36 34 32 31 29 29 29 29 28 27 27 26 26 25 25 25 25 26 26 26 26 26 27 31 36 42 46 50 52 53 54 57 60 62 63 65 67 70 72 74 76
72 72 72 72 73 75 77 80 82 83 82 83 84 86 87 88 88 86 86 88 89 88 87 85 84 84 83 79 74 72 71 69 64 59 54 51 48 46 44 43 41 37 34 32 31 29 28 28 27 26 26 25 25 24 23 22 21 21 21 20 21 21 21 21 22 22 23 24 26 30 35 42 46 49 51 53 55 58 61 62 63 66 69 70 72
75 74 73 74 76 77 79 81 82 81 78 78 80 82 84 84 84 84 85 87 87 87 85 83 81 81 81 79 75 73 71 66 60 54 49 46 44 42 40 38 35 32 31 30 29 27 26 25 25 24 23 22 20 19 18 17 16 16 16 15 15 15 15 16 16 16 17 18 19 21 24 30 36 41 45 47 49 51 54 57 59 61 64 67 69
77 77 76 75 75 75 77 80 82 81 78 78 80 84 88 89 89 89 88 86 85 85 84 83 80 77 75 73 71 67 62 57 51 47 43 41 38 36 34 32 31 31 31 30 28 25 24 23 22 21 19 18 16 15 14 12 12 11 10 10 10 10 10 10 10 11 11 11 12 13 15 20 26 32 36 41 44 46 48 51 52 54 55 58 62
77 77 75 72 71 70 71 74 76 78 79 78 78 80 83 85 86 87 85 84 82 81 79 76 70 64 60 56 53 50 47 44 40 38 38 37 36 33 32 30 30 30 30 28 25 24 23 21 20 18 15 14 13 12 10 9 8 8 7 7 7 7 7 7 7 7 7 7 8 9 10 14 18 21 24 29 34 38 41 43 45 46 46 47 50
73 73 71 68 66 65 64 64 66 68 70 71 71 70 71 72 74 75 74 73 71 68 63 58 53 48 44 41 39 38 36 34 32 32 32 33 33 33 31 28 28 29 30 27 23 21 19 18 18 18 15 14 14 13 9 8 8 7 7 7 6 6 6 6 6 6 6 6 7 8 9 9 10 12 12 15 19 23 25 28 32 36 37 38 41
67 66 64 62 59 57 55 55 54 55 56 56 57 57 58 58 59 59 59 57 54 51 48 45 43 41 38 35 34 33 31 30 30 30 29 30 32 32 29 24 23 27 29 26 22 20 18 15 14 14 13 13 15 14 11 8 8 8 7 7 7 7 6 6 7 7 7 6 7 9 9 8 7 7 7 8 10 11 11 13 18 24 27 28 30
60 57 54 52 50 48 46 45 45 44 44 44 43 43 44 45 46 46 46 45 44 42 41 40 38 35 33 32 32 31 30 30 30 30 29 30 31 31 28 24 23 25 26 23 20 20 17 15 14 13 12 12 14 14 11 9 9 9 9 8 8 8 8 8 7 7 8 6 8 10 10 10 11 10 8 6 6 8 7 7 12 18 21 20 20
53 51 49 48 46 45 44 43 42 40 37 36 35 36 36 37 38 39 39 39 39 39 37 35 32 31 31 32 31 30 31 31 30 29 30 30 29 28 26 25 24 25 25 23 22 20 19 17 16 14 14 15 15 15 13 12 12 11 12 11 11 10 10 10 9 9 9 8 8 10 11 11 13 14 12 8 7 8 9 9 12 16 18 18 18